Location: Krasnoyarskiy Pitomnik
(51.1333°N, 71.6167°E)
Time: 23:33:26
(UTC+00:00)

Vanguard 1 - Pass Details

Date: 18 April 2024
Orbit: 651 x 3826 km, 34.2° (Epoch: 18 May)

Event Time Altitude Azimuth Distance (km) Brightness Sun altitude
Exits shadow 22:01:11 - 191° (SSW) 7,069 13.9 -17.7°
Reaches altitude 10° 22:03:02 10° 188° (S) 6,797 13.8 -17.5°
Maximum altitude 22:16:48 21° 149° (SSE) 5,174 13.6 -16.0°
Drops below altitude 10° 22:27:27 10° 107° (ESE) 5,190 14.2 -14.7°
Sets 22:32:05 0° 93° (E) 5,704 14.8 -14.2°
